[[{"header":{"parameterUnit":"m.s-1","parameterCategory":1,"la1":30.2991,"la2":30.254,"lo1":-89.0895,"lo2":-89.0444,"dy":0.0017,"dx":0.0017,"nx":28,"ny":28,"refTime":"2024-08-18T03:00:00:Z","depth":0,"parameterNumber":2,"parameterNumberName":"U-component_of_WINDS"},"data":[0,0,0,0,0,0,0,0,0,0,0,0,0,0,0,0,0,0,0,0,0,0,0,0,0,0,0,0,0,0,0,0,0,0,0,0,0,0,0,0,0,0,0,0,0,0,0,0,0,0,0,0,0,0,0,0,0,0,3.6623,3.6625,0,3.6787,3.6789,3.6791,3.675,3.6747,3.6744,3.6741,3.6913,3.6921,3.6928,0,0,0,0,0,0,0,0,0,0,0,0,0,3.6279,3.6286,3.6623,3.6625,3.6627,3.6787,3.6789,3.6791,3.6751,3.6747,3.6743,3.674,3.6911,3.692,3.6929,0,0,0,0,0,0,0,0,0,0,0,0,0,3.6435,3.6288,3.6623,3.6626,3.6628,3.6786,3.6789,3.6792,3.6752,3.6747,3.6742,3.6738,3.6908,3.6919,3.693,3.7097,0,0,3.6965,3.697,0,0,0,0,0,0,0,0,3.6426,3.6447,3.6623,3.6626,3.6628,3.6743,3.6731,3.6894,3.6753,3.6705,3.6741,3.6735,3.6861,3.6876,3.6917,3.7105,3.7112,3.6966,3.6973,3.6978,3.6981,0,0,0,0,0,0,0,3.6415,3.644,3.6688,3.6626,3.6629,3.6621,3.6638,3.6762,3.6808,3.6709,3.6706,3.6726,3.6861,3.6907,3.6921,3.7115,3.6966,3.6976,3.6983,3.6987,3.7449,3.7454,0,0,0,0,0,0,3.6402,3.6431,3.6683,3.6693,3.6513,3.6631,3.665,3.6711,3.6807,3.6816,3.673,3.6723,3.6889,3.6908,3.6927,3.7129,3.6978,3.6988,3.6995,3.7444,3.745,3.7456,0,0,0,0,0,0,3.6395,3.6425,3.6676,3.6562,3.6593,3.6642,3.6712,3.6717,3.6762,3.6822,3.6831,3.6767,3.6886,3.6911,3.7055,3.7135,3.6993,3.7004,3.7437,3.7446,3.7453,3.7535,0,0,0,0,0,0,3.6385,3.6422,3.6485,3.6563,3.6599,3.68,3.6717,3.6724,3.6781,3.6774,3.686,3.6869,3.6885,3.7038,3.7066,3.7148,3.7013,3.743,3.7441,3.7451,3.7525,3.7544,3.7561,0,0,0,0,0,3.6373,3.6501,3.6488,3.6518,3.6678,3.6804,3.6825,3.6839,3.6788,3.6852,3.6891,3.6867,3.7121,3.7053,3.7084,3.7171,3.7425,3.7438,3.745,3.7517,3.7541,3.7561,0,0,0,0,0,0,3.6431,3.6512,3.6498,3.6655,3.6723,3.6797,3.6878,3.6864,3.6949,3.6939,3.6954,3.6973,3.7121,3.716,3.7083,3.7338,3.7266,3.7285,3.7307,3.733,3.7347,3.7335,3.7022,0,0,0,0,0,3.6463,3.6557,3.6623,3.6756,3.679,3.6829,3.6884,3.6889,3.6961,3.699,3.7039,3.7111,3.7208,3.7271,3.7363,3.7531,3.755,3.7606,3.7624,3.7638,3.7655,3.7749,3.7775,3.7497,3.7496,3.7496,0,0,3.6528,3.6584,3.6643,3.6769,3.6822,3.6922,3.6853,3.6961,3.7035,3.7007,3.7145,3.7185,3.7266,3.7423,3.7495,3.7461,3.7736,3.7654,3.7665,3.7674,3.7764,3.779,3.7813,3.7505,3.7503,3.7502,0,0,3.6698,3.6749,3.6866,3.6921,3.7003,3.7028,3.7056,3.7133,3.7158,3.7297,3.7278,3.7368,3.7533,3.7592,3.7644,3.784,3.7821,3.7869,3.7964,3.8055,3.8077,3.8097,3.8168,3.8193,3.7886,3.7886,3.7886,0,3.677,3.6917,3.6928,3.7038,3.7095,3.7073,3.7193,3.7247,3.7355,3.7395,3.7355,3.7563,3.7617,3.7788,3.7836,3.7878,3.7912,3.7859,3.8073,3.8093,3.8111,3.8179,3.8205,3.7891,3.7891,3.789,3.7889,0,3.7002,3.7105,3.719,3.7294,3.736,3.7475,3.7505,3.7572,3.7572,3.7602,3.7745,3.7808,3.7913,3.7955,3.7956,3.8127,3.8104,3.8068,3.7997,3.8143,3.8207,3.8233,3.7899,3.7897,3.7895,3.7894,0,0,3.7212,3.7322,3.7353,3.7401,3.749,3.7571,3.7686,3.7788,3.7845,3.7921,3.8019,3.816,3.8128,3.8187,3.8195,3.8275,3.8428,3.823,3.8232,3.8265,3.8623,3.8649,3.8679,3.8416,3.8421,3.8425,3.8616,0,3.7391,3.7591,3.7605,3.7787,3.7883,3.7865,3.7965,3.8032,3.8064,3.8151,3.8187,3.8287,3.8237,3.8273,3.8351,3.8392,3.85,3.8379,3.8509,3.8513,3.8489,3.8712,3.874,3.8918,3.8641,3.8646,3.8649,0,3.7625,3.7708,3.7899,3.7976,3.8017,3.8107,3.8202,3.8286,3.8363,3.838,3.8447,3.8444,3.8564,3.8488,3.8655,3.8573,3.8627,3.8656,3.8663,3.8676,3.859,3.8732,3.8974,3.9001,3.8688,3.8685,3.8682,0,3.7761,3.792,3.8055,3.8096,3.819,3.8254,3.8296,3.8367,3.8429,3.8513,3.8553,3.8651,3.8705,3.8781,3.8806,3.8748,3.8973,3.8898,3.8992,3.8992,3.904,3.9037,3.9296,3.9075,3.9074,3.9074,3.9073,0,3.7959,3.8076,3.8117,3.82,3.8333,3.8349,3.848,3.8519,3.8584,3.8676,3.8666,3.8753,3.878,3.8873,3.8893,3.9029,3.9053,3.9072,3.9076,3.9073,3.9071,3.9109,3.9098,3.9081,3.9079,3.9078,3.9077,0,3.8132,3.8164,3.831,3.8387,3.8409,3.8504,3.857,3.8652,3.8682,3.8799,3.8828,3.8876,3.8985,3.9017,3.9148,3.9161,3.9321,3.9314,3.9295,3.9295,3.9388,3.9379,3.968,3.9722,3.9473,3.9475,3.9477,0,3.8256,3.8346,3.8433,3.8494,3.8539,3.8636,3.8698,3.872,3.8785,3.8881,3.8951,3.9058,3.9144,3.9319,3.9367,3.9468,3.9463,3.9562,3.9478,3.9473,3.9466,3.9461,3.9471,3.9578,3.958,3.9582,3.9584,0,3.8474,3.8486,3.8575,3.8671,3.8746,3.8823,3.8897,3.8947,3.898,3.9055,3.9165,3.9232,3.9366,3.9473,3.9575,3.962,3.9609,3.961,3.9638,3.9636,3.9621,3.9631,3.9339,3.9603,3.9601,3.96,3.9599,3.9598,3.8627,3.8707,3.8781,3.8882,3.894,3.901,3.9091,3.9132,3.9224,3.9333,3.9341,3.9461,3.9538,3.9674,3.9725,3.982,3.9792,3.9831,3.9841,3.985,3.9859,3.9606,3.9839,3.9839,3.9838,3.9838,3.9837,0,3.8845,3.8892,3.8985,3.9089,3.9169,3.915,3.9232,3.93,3.9406,3.9478,3.9563,3.9691,3.9796,3.9853,3.9957,4.0023,4.0021,4.005,4.0046,4.0057,3.9878,3.9844,4.005,4.005,4.005,4.005,4.005,4.005,3.8968,3.9102,3.9123,3.9288,3.9335,3.9451,3.95,3.9566,3.9623,3.9766,3.9853,3.9889,3.9956,4.0066,4.0161,4.0176,4.0215,4.0248,4.0259,4.0091,4.0069,4.0048,4.0017,4.0256,4.0257,4.0431,4.0432,4.0434]},{"header":{"parameterUnit":"m.s-1","parameterCategory":1,"la1":30.2991,"la2":30.254,"lo1":-89.0895,"lo2":-89.0444,"dy":0.0017,"dx":0.0017,"nx":28,"ny":28,"refTime":"2024-08-18T03:00:00:Z","depth":0,"parameterNumber":3,"parameterNumberName":"V-component_of_WINDS"},"data":[0,0,0,0,0,0,0,0,0,0,0,0,0,0,0,0,0,0,0,0,0,0,0,0,0,0,0,0,0,0,0,0,0,0,0,0,0,0,0,0,0,0,0,0,0,0,0,0,0,0,0,0,0,0,0,0,0,0,3.3018,3.3021,0,3.3253,3.3255,3.3258,3.3283,3.328,3.3278,3.3276,3.3516,3.3525,3.3533,0,0,0,0,0,0,0,0,0,0,0,0,0,3.2594,3.2601,3.3018,3.3021,3.3024,3.3252,3.3256,3.3259,3.3283,3.328,3.3277,3.3274,3.3514,3.3524,3.3534,0,0,0,0,0,0,0,0,0,0,0,0,0,3.2798,3.2604,3.3018,3.3064,3.307,3.3252,3.3256,3.326,3.3284,3.328,3.3276,3.3273,3.351,3.3523,3.3536,3.3688,0,0,3.3575,3.3581,0,0,0,0,0,0,0,0,3.2786,3.2814,3.3054,3.3061,3.3068,3.3235,3.3194,3.3403,3.3285,3.3203,3.3275,3.3271,3.3426,3.3445,3.3497,3.3699,3.3709,3.3576,3.3584,3.359,3.3594,0,0,0,0,0,0,0,3.2772,3.2804,3.3111,3.3058,3.3066,3.3073,3.3098,3.3234,3.3332,3.321,3.3212,3.3239,3.3429,3.3485,3.3503,3.3713,3.3576,3.3588,3.3596,3.3601,3.4053,3.4057,0,0,0,0,0,0,3.2749,3.2792,3.3104,3.3118,3.2916,3.3084,3.3112,3.3185,3.333,3.3349,3.3242,3.3239,3.3464,3.3488,3.3512,3.3701,3.359,3.3602,3.3609,3.4048,3.4053,3.4058,0,0,0,0,0,0,3.274,3.2777,3.3094,3.2956,3.2997,3.3095,3.3177,3.3192,3.3247,3.3355,3.3372,3.3281,3.3462,3.3493,3.3644,3.3709,3.3608,3.362,3.4043,3.405,3.4056,3.4079,0,0,0,0,0,0,3.2728,3.2773,3.2832,3.2957,3.3004,3.3222,3.3181,3.3199,3.327,3.3268,3.3396,3.3414,3.3462,3.3625,3.3657,3.3725,3.363,3.4038,3.4046,3.4054,3.4073,3.4085,3.4096,0,0,0,0,0,3.2712,3.2829,3.2835,3.2872,3.3079,3.3226,3.3253,3.3306,3.3275,3.3335,3.3404,3.341,3.3696,3.364,3.3676,3.375,3.4034,3.4044,3.4053,3.4067,3.4083,3.4095,0,0,0,0,0,0,3.2709,3.2846,3.2854,3.3014,3.3108,3.323,3.3307,3.332,3.3425,3.342,3.3482,3.351,3.3659,3.3719,3.3653,3.3905,3.3862,3.388,3.3861,3.3876,3.3887,3.387,3.364,0,0,0,0,0,3.2727,3.2834,3.2948,3.3078,3.3125,3.3208,3.3274,3.3307,3.3407,3.3447,3.3527,3.3624,3.3737,3.3809,3.3918,3.4081,3.411,3.4149,3.4161,3.417,3.4185,3.4277,3.4296,3.4089,3.4089,3.4089,0,0,3.2765,3.2853,3.2917,3.308,3.3157,3.3268,3.3241,3.3359,3.3443,3.3465,3.3613,3.3675,3.3787,3.3945,3.4018,3.4,3.4248,3.4182,3.4188,3.4198,3.4288,3.4308,3.4325,3.4096,3.4095,3.4093,0,0,3.2891,3.2968,3.3086,3.3163,3.328,3.3334,3.3362,3.3483,3.3525,3.3673,3.3693,3.3793,3.3984,3.4065,3.413,3.4287,3.4297,3.4321,3.4382,3.4471,3.4487,3.4502,3.456,3.4579,3.4335,3.4335,3.4335,0,3.2924,3.3091,3.3144,3.3263,3.3334,3.3359,3.348,3.3552,3.3699,3.3748,3.3725,3.3967,3.4044,3.4222,3.426,3.4312,3.4347,3.4307,3.448,3.4496,3.451,3.4566,3.4587,3.4337,3.4337,3.4337,3.4337,0,3.3126,3.3242,3.3323,3.3464,3.3545,3.3663,3.3735,3.3811,3.3836,3.3893,3.4045,3.4139,3.4268,3.4312,3.4339,3.4494,3.4479,3.4467,3.4426,3.4531,3.4585,3.4606,3.434,3.434,3.4339,3.4338,0,0,3.3258,3.3427,3.3456,3.3521,3.3651,3.3742,3.3862,3.3989,3.4053,3.4153,3.4256,3.4418,3.4408,3.4482,3.4518,3.4595,3.4716,3.4575,3.4578,3.4599,3.4895,3.4904,3.4928,3.4723,3.4727,3.473,3.4886,0,3.34,3.3614,3.3666,3.385,3.3958,3.3984,3.4089,3.4181,3.4237,3.4338,3.44,3.4514,3.4492,3.4537,3.4615,3.4685,3.4776,3.4674,3.482,3.4825,3.4793,3.4956,3.4966,3.5109,3.4907,3.4911,3.4913,0,3.3595,3.37,3.3894,3.4012,3.4059,3.4153,3.4273,3.4369,3.4474,3.4509,3.4593,3.4621,3.4747,3.4698,3.4874,3.4803,3.4866,3.4909,3.4916,3.4933,3.4877,3.4979,3.5155,3.5177,3.4946,3.4944,3.4941,0,3.3673,3.3863,3.4004,3.4058,3.4199,3.4264,3.4325,3.4427,3.45,3.4605,3.4654,3.4772,3.4837,3.4929,3.4988,3.4946,3.516,3.5115,3.5194,3.5193,3.5239,3.5236,3.543,3.5277,3.5276,3.5276,3.5275,0,3.3828,3.3946,3.4041,3.4128,3.4262,3.4321,3.4452,3.4514,3.4604,3.4704,3.4733,3.4826,3.4898,3.5002,3.5049,3.5188,3.5217,3.525,3.5262,3.5249,3.5245,3.5292,3.5284,3.5282,3.528,3.5279,3.5278,0,3.3938,3.4006,3.4163,3.4283,3.4316,3.4409,3.4512,3.4598,3.4655,3.4782,3.4815,3.4905,3.5028,3.5096,3.5251,3.5282,3.5439,3.5444,3.5404,3.5409,3.5485,3.5477,3.5717,3.5752,3.5574,3.5576,3.5577,0,3.4033,3.4125,3.4255,3.4324,3.4387,3.4498,3.4573,3.4634,3.4711,3.4838,3.4909,3.5034,3.5137,3.5333,3.5413,3.5532,3.5541,3.5617,3.5559,3.5544,3.5545,3.5539,3.5549,3.5627,3.5629,3.563,3.5632,0,3.4195,3.4224,3.4331,3.445,3.4538,3.4635,3.4731,3.4786,3.4863,3.4948,3.5074,3.5155,3.5313,3.5438,3.5563,3.5627,3.5643,3.5649,3.5674,3.5663,3.5636,3.5653,3.5433,3.5643,3.5642,3.5641,3.5641,3.564,3.4302,3.4386,3.4491,3.4609,3.4687,3.4776,3.4863,3.4931,3.5038,3.5172,3.5201,3.5335,3.5439,3.5609,3.5676,3.5782,3.5768,3.5803,3.5813,3.5821,3.5825,3.5617,3.5805,3.5805,3.5805,3.5804,3.5804,0,3.4467,3.4536,3.4644,3.4777,3.487,3.4876,3.4983,3.5061,3.5178,3.5274,3.5375,3.5521,3.5642,3.5731,3.5855,3.5923,3.5933,3.5953,3.595,3.5965,3.583,3.5797,3.5943,3.5943,3.5943,3.5943,3.5942,3.5942,3.4564,3.4706,3.4748,3.4929,3.4997,3.5129,3.519,3.5272,3.5349,3.5511,3.5611,3.5668,3.5762,3.5892,3.6004,3.6027,3.6072,3.6091,3.6115,3.5988,3.5974,3.596,3.5929,3.61,3.61,3.6242,3.6243,3.6244]}]]